Volver al catálogo

STARLINK-37593

ActivoComunicacionesVLEO
NORAD 69355·PAYLOAD·🇺🇸 United States

Lanzado Jun 4, 2026 desde Cape Canaveral Space Force Station

Loading…

Próximos Pases (próximas 24 horas)

TLE

ActualizadoSource: CelesTrak SupGP

Época: Sep 14, 2026, 21:30 UTC

1 69355C 26123C   26257.89631944 -.00049123  00000+0 -14509-2 0  2576
2 69355  53.1591 168.1005 0001272  93.8420  38.3030 15.34423860    17

Sigue STARLINK-37593 en tiempo real con AllMySat

Download on the App Store